Location: Mount Cross
(36.6390°N, 79.4878°W)
Time: 02:14:56
(UTC+00:00)

Vanguard 2 Rocket - Pass Details

Date: 26 March 2023
Orbit: 554 x 3314 km, 32.9° (Epoch: 08 June)

Event Time Altitude Azimuth Distance (km) Brightness Sun altitude
Rises 00:24:46 0° 240° (WSW) 3,347 10.7 -10.9°
Reaches altitude 10° 00:26:51 10° 235° (SW) 2,626 9.9 -11.3°
Maximum altitude 00:33:01 55° 159° (SSE) 1,541 7.8 -12.5°
Enters shadow 00:41:45 16° 89° (E) 3,839 9.5 -14.3°
